Weather History for KBML - March, 2014

Change the Weather History Date:

Monday, March 10, 2014

  Actual Average Record
Temperature  
Mean Temperature 24 °F -  
Max Temperature 33 °F 30 °F 51 °F (2002)
Min Temperature 14 °F 9 °F -14 °F (1999)
Degree Days  
Heating Degree Days 42    
Moisture  
Dew Point 15 °F    
Average Humidity 70    
Maximum Humidity 86    
Minimum Humidity 52    
Precipitation  
Precipitation 0.00 in - - ()
Sea Level Pressure  
Sea Level Pressure 29.71 in    
Wind  
Wind Speed 1 mph (SSE)    
Max Wind Speed 10 mph    
Max Gust Speed -    
Visibility 8 miles    
Events Snow    
Averages and records for this station are not official NWS values.
T = Trace of Precipitation, MM = Missing Value Source: NWS Daily Summary

Daily Weather History Graph

Daily Weather History Graph

Search for Another Location

Airport or City:

Trip Planner

Search our weather history database for the weather conditions in past years. The results will help you decide how hot, cold, wet, or windy it might be!

Date:

Astronomy

Mar. 10, 2014 Rise Set
Actual Time 7:06 AM EDT 6:44 PM EDT
Civil Twilight 6:37 AM EDT 7:13 PM EDT
Nautical Twilight 6:03 AM EDT 7:47 PM EDT
Astronomical Twilight 5:29 AM EDT 8:21 PM EDT
Moon 1:15 PM EDT (3/10) 3:25 AM EDT (3/10)
Length of Visible Light 12h 36m
Length of Day
11h 38m
Waxing Gibbous, 70% of the Moon is Illuminated
Mar 10
Waxing Gibbous
Mar 16
Full
Mar 23
Last Quarter
Mar 30
New
Apr 7
First Quarter

Hourly Weather History & Observations

Time (EDT) Temp. Windchill Dew Point Humidity Pressure Visibility Wind Dir Wind Speed Gust Speed Precip Events Conditions
12:52 AM 15.1 °F - 5.0 °F 64% 29.85 in 10.0 mi Calm Calm - N/A   Overcast
1:52 AM 15.1 °F - 5.0 °F 64% 29.85 in 6.0 mi Calm Calm - N/A   Haze
2:52 AM 14.0 °F - 8.1 °F 77% 29.82 in 9.0 mi Calm Calm - N/A   Overcast
3:45 AM 14.0 °F - 8.1 °F 77% 29.74 in 2.0 mi Calm Calm - 0.00 in Snow Light Snow
3:52 AM 14.0 °F - 9.0 °F 80% 29.79 in 2.0 mi Calm Calm - 0.00 in Snow Light Snow
4:03 AM 15.1 °F - 10.0 °F 80% 29.73 in 3.0 mi Calm Calm - 0.00 in Snow Light Snow
4:52 AM 15.1 °F - 10.0 °F 80% 29.78 in 10.0 mi Calm Calm - 0.00 in   Overcast
5:52 AM 15.1 °F - 10.0 °F 80% 29.78 in 10.0 mi Calm Calm - N/A   Overcast
6:52 AM 15.1 °F - 10.9 °F 84% 29.78 in 10.0 mi Calm Calm - N/A   Overcast
7:45 AM 16.0 °F - 10.9 °F 81% 29.72 in 2.5 mi Calm Calm - 0.00 in Snow Light Snow
7:52 AM 16.0 °F - 10.9 °F 81% 29.78 in 4.0 mi Calm Calm - 0.00 in Snow Light Snow
8:52 AM 18.0 °F - 12.0 °F 78% 29.80 in 10.0 mi Calm Calm - 0.00 in   Overcast
9:52 AM 19.9 °F 14.9 °F 12.9 °F 74% 29.78 in 10.0 mi SSW 3.5 mph - N/A   Overcast
10:52 AM 26.1 °F - 15.1 °F 63% 29.76 in 10.0 mi Calm Calm - N/A   Overcast
11:52 AM 30.0 °F - 15.1 °F 54% 29.75 in 10.0 mi Calm Calm - N/A   Overcast
12:52 PM 30.0 °F 26.5 °F 16.0 °F 56% 29.73 in 10.0 mi East 3.5 mph - N/A   Overcast
1:52 PM 32.0 °F - 17.1 °F 54% 29.72 in 10.0 mi Calm Calm - N/A   Overcast
2:52 PM 33.1 °F - 17.1 °F 52% 29.70 in 10.0 mi Calm Calm - N/A   Overcast
3:52 PM 32.0 °F - 18.0 °F 56% 29.70 in 10.0 mi Calm Calm - N/A   Overcast
4:52 PM 33.1 °F - 19.0 °F 56% 29.67 in 10.0 mi Calm Calm - N/A   Overcast
5:52 PM 32.0 °F 25.6 °F 18.0 °F 56% 29.68 in 10.0 mi SE 6.9 mph - N/A   Overcast
6:52 PM 30.9 °F 25.2 °F 18.0 °F 59% 29.68 in 10.0 mi SSE 5.8 mph - N/A   Overcast
7:52 PM 30.9 °F - 19.0 °F 61% 29.67 in 10.0 mi Calm Calm - N/A   Overcast
8:52 PM 30.0 °F - 21.0 °F 69% 29.65 in 10.0 mi Calm Calm - N/A   Overcast
9:52 PM 30.9 °F 23.5 °F 19.9 °F 64% 29.62 in 10.0 mi SSE 8.1 mph - N/A   Overcast
10:52 PM 30.9 °F 22.8 °F 21.0 °F 67% 29.59 in 10.0 mi SSE 9.2 mph - N/A   Overcast
11:35 PM 30.0 °F 21.1 °F 23.0 °F 75% 29.54 in 2.5 mi SSE 10.4 mph - 0.00 in Snow Light Snow
11:40 PM 30.0 °F 22.4 °F 24.1 °F 79% 29.54 in 1.2 mi SSE 8.1 mph - 0.00 in Snow Light Snow
11:50 PM 28.4 °F 20.4 °F 24.8 °F 86% 29.53 in 2.0 mi SSE 8.1 mph - 0.00 in Snow Light Snow
11:51 PM 28.9 °F 21.9 °F 24.1 °F 82% 29.58 in 2.0 mi SSE 6.9 mph - 0.00 in Snow Light Snow